When you browse on this site, cookies collect data to enhance your experience and personalize the content and advertising you see.
Visit our Privacy Policy to learn more. By continuing to use the site, you agree to this use of cookies and data.
  • In Sweden
  • List of Countries
  • For 7 days
  • Water Temperature
  • Satellite Maps
  • Weather Map
  • Weather Widgets
  • user-avatar
    Login

    Hourly Weather Czerniewice

    Today, 24 February, Sunday

    Time Temperature Precipitation Wind Pressure Humidity
    00:00 -4°C° 0 mm 3 mps 770 mmHg 41%
    01:00 -4°C° 0 mm 3 mps 770 mmHg 40%
    02:00 -4°C° 0 mm 3 mps 769 mmHg 39%
    03:00 -4°C° 0 mm 4 mps 769 mmHg 38%
    04:00 -3°C° 0 mm 4 mps 769 mmHg 37%
    05:00 -3°C° 0 mm 4 mps 768 mmHg 40%
    06:00 -3°C° 0 mm 4 mps 768 mmHg 43%
    07:00 -3°C° 0 mm 4 mps 768 mmHg 46%
    08:00 -2°C° 0 mm 4 mps 768 mmHg 45%
    09:00 -1°C° 0 mm 4 mps 768 mmHg 43%
    10:00 -1°C° 0 mm 4 mps 768 mmHg 41%
    11:00 0°C° 0 mm 4 mps 767 mmHg 39%
    12:00 +3°C° 0 mm 4 mps 767 mmHg 37%
    13:00 +4°C° 0 mm 4 mps 767 mmHg 35%
    14:00 +4°C° 0 mm 3 mps 767 mmHg 40%
    15:00 +3°C° 0 mm 3 mps 767 mmHg 45%
    16:00 +4°C° 0 mm 2 mps 766 mmHg 50%
    17:00 +2°C° 0 mm 3 mps 766 mmHg 55%
    18:00 +1°C° 0 mm 3 mps 766 mmHg 59%
    19:00 0°C° 0 mm 3 mps 766 mmHg 64%
    20:00 0°C° 0 mm 3 mps 766 mmHg 66%
    21:00 0°C° 0 mm 3 mps 766 mmHg 68%
    22:00 -1°C° 0 mm 3 mps 766 mmHg 70%
    23:00 -1°C° 0 mm 3 mps 766 mmHg 71%

    Tomorrow, 25 February, Monday

    Time Temperature Precipitation Wind Pressure Humidity
    00:00 -1°C° 0 mm 3 mps 766 mmHg 72%
    01:00 -1°C° 0 mm 3 mps 766 mmHg 73%
    02:00 -1°C° 0 mm 3 mps 766 mmHg 76%
    03:00 -1°C° 0 mm 3 mps 765 mmHg 79%
    04:00 -1°C° 0 mm 3 mps 765 mmHg 82%
    05:00 -1°C° 0 mm 3 mps 765 mmHg 86%
    06:00 -1°C° 0 mm 3 mps 765 mmHg 89%
    07:00 -2°C° 0 mm 3 mps 765 mmHg 93%
    08:00 -1°C° 0 mm 3 mps 765 mmHg 92%
    09:00 0°C° 0 mm 3 mps 766 mmHg 92%
    10:00 +1°C° 0 mm 3 mps 766 mmHg 91%
    11:00 +2°C° 0 mm 3 mps 766 mmHg 90%
    12:00 +2°C° 0 mm 3 mps 765 mmHg 90%
    13:00 +2°C° 0 mm 3 mps 765 mmHg 89%
    14:00 +2°C° 0 mm 3 mps 765 mmHg 88%
    15:00 +3°C° 0 mm 3 mps 765 mmHg 88%
    16:00 +3°C° 0 mm 4 mps 764 mmHg 88%
    17:00 +2°C° 0 mm 3 mps 764 mmHg 89%
    18:00 +2°C° 0 mm 3 mps 764 mmHg 90%
    19:00 +1°C° 0 mm 3 mps 764 mmHg 91%
    20:00 +1°C° 0 mm 3 mps 764 mmHg 91%
    21:00 +1°C° 0 mm 3 mps 764 mmHg 91%
    22:00 0°C° 0 mm 3 mps 764 mmHg 91%
    23:00 0°C° 0 mm 3 mps 764 mmHg 92%

    Day after tomorrow, 26 February, Tuesday

    Time Temperature Precipitation Wind Pressure Humidity
    00:00 0°C° 0 mm 3 mps 764 mmHg 93%
    01:00 -1°C° 0 mm 3 mps 763 mmHg 94%
    02:00 -1°C° 0 mm 3 mps 763 mmHg 95%
    03:00 -1°C° 0 mm 3 mps 763 mmHg 96%
    04:00 -1°C° 0 mm 3 mps 762 mmHg 97%
    05:00 0°C° 0 mm 3 mps 762 mmHg 97%
    06:00 0°C° 0 mm 4 mps 761 mmHg 96%
    07:00 +1°C° 0 mm 4 mps 761 mmHg 96%
    08:00 +3°C° 0.1 mm 4 mps 761 mmHg 94%
    09:00 +3°C° 0.1 mm 4 mps 761 mmHg 91%
    10:00 +4°C° 0.1 mm 4 mps 761 mmHg 88%
    11:00 +3°C° 0.1 mm 5 mps 761 mmHg 86%
    12:00 +5°C° 0.1 mm 5 mps 761 mmHg 83%
    13:00 +4°C° 0.1 mm 6 mps 761 mmHg 80%
    14:00 +6°C° 0 mm 5 mps 761 mmHg 77%
    15:00 +6°C° 0 mm 5 mps 761 mmHg 74%
    16:00 +6°C° 0 mm 4 mps 761 mmHg 71%
    17:00 +5°C° 0 mm 4 mps 761 mmHg 75%
    18:00 +4°C° 0 mm 3 mps 761 mmHg 80%
    19:00 +3°C° 0 mm 3 mps 762 mmHg 85%
    20:00 +2°C° 0 mm 3 mps 762 mmHg 87%
    21:00 +2°C° 0 mm 3 mps 762 mmHg 88%
    22:00 +2°C° 0 mm 2 mps 762 mmHg 90%
    23:00 +2°C° 0 mm 2 mps 762 mmHg 90%

    27 February, Wednesday

    Time Temperature Precipitation Wind Pressure Humidity
    00:00 +1°C° 0 mm 2 mps 762 mmHg 90%
    01:00 +1°C° 0 mm 2 mps 762 mmHg 91%
    02:00 +1°C° 0 mm 2 mps 762 mmHg 90%
    03:00 +2°C° 0 mm 1 mps 762 mmHg 90%
    04:00 +2°C° 0 mm 1 mps 761 mmHg 89%
    05:00 +2°C° 0 mm 1 mps 761 mmHg 89%
    06:00 +1°C° 0 mm 2 mps 761 mmHg 89%
    07:00 +1°C° 0 mm 2 mps 761 mmHg 89%
    08:00 +3°C° 0 mm 2 mps 761 mmHg 86%
    09:00 +4°C° 0 mm 2 mps 760 mmHg 83%
    10:00 +5°C° 0 mm 3 mps 760 mmHg 80%
    11:00 +7°C° 0 mm 3 mps 760 mmHg 75%
    12:00 +7°C° 0 mm 4 mps 759 mmHg 71%
    13:00 +8°C° 0 mm 4 mps 759 mmHg 66%
    14:00 +8°C° 0 mm 4 mps 758 mmHg 67%
    15:00 +8°C° 0 mm 4 mps 758 mmHg 68%
    16:00 +8°C° 0 mm 4 mps 757 mmHg 69%
    17:00 +7°C° 0 mm 4 mps 757 mmHg 72%
    18:00 +6°C° 0 mm 4 mps 756 mmHg 76%
    19:00 +5°C° 0 mm 3 mps 756 mmHg 79%
    20:00 +5°C° 0 mm 3 mps 756 mmHg 81%
    21:00 +5°C° 0 mm 4 mps 755 mmHg 82%
    22:00 +4°C° 0 mm 4 mps 755 mmHg 83%
    23:00 +4°C° 0 mm 4 mps 755 mmHg 84%

    28 February, Thursday

    Time Temperature Precipitation Wind Pressure Humidity
    00:00 +4°C° 0 mm 4 mps 754 mmHg 85%
    01:00 +4°C° 0 mm 4 mps 754 mmHg 86%
    02:00 +4°C° 0 mm 4 mps 753 mmHg 87%
    03:00 +3°C° 0 mm 4 mps 753 mmHg 88%
    04:00 +3°C° 0 mm 4 mps 752 mmHg 88%
    05:00 +3°C° 0 mm 4 mps 751 mmHg 88%
    06:00 +3°C° 0 mm 4 mps 751 mmHg 88%
    07:00 +3°C° 0 mm 4 mps 750 mmHg 88%
    08:00 +3°C° 0 mm 5 mps 750 mmHg 81%
    09:00 +5°C° 0 mm 6 mps 750 mmHg 75%
    10:00 +6°C° 0 mm 7 mps 750 mmHg 69%
    11:00 +8°C° 0 mm 7 mps 749 mmHg 66%
    12:00 +9°C° 0 mm 7 mps 749 mmHg 63%
    13:00 +10°C° 0 mm 8 mps 749 mmHg 60%
    14:00 +10°C° 0 mm 7 mps 749 mmHg 61%
    15:00 +9°C° 0 mm 7 mps 749 mmHg 63%
    16:00 +9°C° 0 mm 7 mps 749 mmHg 64%
    17:00 +8°C° 0 mm 6 mps 749 mmHg 70%
    18:00 +7°C° 0 mm 5 mps 750 mmHg 76%
    19:00 +5°C° 0 mm 5 mps 750 mmHg 82%
    20:00 +5°C° 0 mm 4 mps 750 mmHg 85%
    21:00 +4°C° 0 mm 4 mps 751 mmHg 88%
    22:00 +3°C° 0 mm 3 mps 751 mmHg 91%
    23:00 +3°C° 0 mm 3 mps 751 mmHg 92%

    1 March, Friday

    Time Temperature Precipitation Wind Pressure Humidity
    00:00 +2°C° 0 mm 3 mps 751 mmHg 93%
    01:00 +2°C° 0 mm 3 mps 752 mmHg 94%
    02:00 +1°C° 0 mm 3 mps 752 mmHg 94%
    03:00 +1°C° 0 mm 3 mps 752 mmHg 95%
    04:00 +1°C° 0 mm 3 mps 752 mmHg 95%
    05:00 0°C° 0 mm 3 mps 752 mmHg 95%
    06:00 0°C° 0 mm 3 mps 752 mmHg 94%
    07:00 0°C° 0 mm 3 mps 752 mmHg 93%
    08:00 +1°C° 0 mm 3 mps 753 mmHg 83%
    09:00 +3°C° 0 mm 4 mps 753 mmHg 74%
    10:00 +4°C° 0 mm 4 mps 753 mmHg 64%
    11:00 +5°C° 0 mm 4 mps 754 mmHg 61%
    12:00 +5°C° 0 mm 4 mps 754 mmHg 58%
    13:00 +6°C° 0 mm 5 mps 754 mmHg 55%
    14:00 +6°C° 0 mm 5 mps 754 mmHg 54%
    15:00 +6°C° 0 mm 4 mps 754 mmHg 54%
    16:00 +5°C° 0 mm 4 mps 754 mmHg 54%
    17:00 +4°C° 0 mm 4 mps 755 mmHg 58%
    18:00 +3°C° 0 mm 3 mps 755 mmHg 62%
    19:00 +1°C° 0 mm 3 mps 755 mmHg 66%
    20:00 +1°C° 0 mm 3 mps 756 mmHg 70%
    21:00 0°C° 0 mm 3 mps 756 mmHg 73%
    22:00 -1°C° 0 mm 3 mps 757 mmHg 77%
    23:00 -1°C° 0 mm 2 mps 757 mmHg 79%
    Show more